Pensacola NAS, FL

10:47 AM CDT on April 27, 2017 (GMT -0500)
Pensacola Naval Air Station

Weather History for KNPA - July, 2013

Change the Weather History Date:

Wednesday, July 17, 2013

  Actual Average Record
Temperature  
Mean Temperature 81 °F -  
Max Temperature 88 °F 87 °F 96 °F (2000)
Min Temperature 75 °F 72 °F 66 °F (2014)
Cooling Degree Days 16    
Growing Degree Days 31 (Base 50)    
Moisture  
Dew Point 74 °F    
Average Humidity 80    
Maximum Humidity 94    
Minimum Humidity 63    
Precipitation  
Precipitation 0.00 in - - ()
Sea Level Pressure  
Sea Level Pressure 30.17 in    
Wind  
Wind Speed 6 mph (East)    
Max Wind Speed 12 mph    
Max Gust Speed -    
Visibility 10 miles    
Events      
Averages and records for this station are not official NWS values.
T = Trace of Precipitation, MM = Missing Value Source: NWS Daily Summary

Daily Weather History Graph

Daily Weather History Graph

Search for Another Location

Airport or City:

Trip Planner

Search our weather history database for the weather conditions in past years. The results will help you decide how hot, cold, wet, or windy it might be!

Date:

Astronomy

Jul. 17, 2013 Rise Set
Actual Time 5:58 AM CDT 7:51 PM CDT
Civil Twilight 5:32 AM CDT 8:18 PM CDT
Nautical Twilight 4:59 AM CDT 8:51 PM CDT
Astronomical Twilight 4:25 AM CDT 9:25 PM CDT
Moon 2:45 PM CDT (7/17) 12:57 AM CDT (7/17)
Length of Visible Light 14h 46m
Length of Day
13h 52m
Waxing Gibbous, 67% of the Moon is Illuminated
Jul 17
Waxing Gibbous
Jul 22
Full
Jul 29
Last Quarter
Aug 6
New
Aug 14
First Quarter

Hourly Weather History & Observations

Time (CDT) Temp. Heat Index Dew Point Humidity Pressure Visibility Wind Dir Wind Speed Gust Speed Precip Events Conditions
12:56 AM 75.9 °F - 73.0 °F 91% 30.19 in 10.0 mi NNE 4.6 mph - N/A   Clear
1:56 AM 75.9 °F - 73.0 °F 91% 30.18 in 10.0 mi NNE 5.8 mph - N/A   Clear
2:56 AM 75.0 °F - 72.0 °F 90% 30.17 in 10.0 mi NE 6.9 mph - N/A   Clear
3:56 AM 75.0 °F - 73.0 °F 94% 30.17 in 10.0 mi NNE 6.9 mph - N/A   Clear
4:56 AM 75.0 °F - 72.0 °F 90% 30.18 in 10.0 mi ENE 5.8 mph - N/A   Clear
5:56 AM 75.0 °F - 73.0 °F 94% 30.19 in 10.0 mi NE 5.8 mph - N/A   Scattered Clouds
6:56 AM 77.0 °F - 73.9 °F 90% 30.19 in 10.0 mi NE 6.9 mph - N/A   Mostly Cloudy
7:56 AM 80.1 °F 85.1 °F 75.0 °F 85% 30.21 in 10.0 mi ENE 11.5 mph - N/A   Scattered Clouds
8:56 AM 82.0 °F 88.6 °F 75.0 °F 79% 30.21 in 10.0 mi ENE 8.1 mph - N/A   Scattered Clouds
9:56 AM 84.0 °F 91.2 °F 73.9 °F 72% 30.22 in 10.0 mi East 8.1 mph - N/A   Scattered Clouds
10:56 AM 86.0 °F 93.8 °F 73.9 °F 67% 30.22 in 10.0 mi ENE 9.2 mph - N/A   Scattered Clouds
11:56 AM 87.1 °F 94.5 °F 73.0 °F 63% 30.21 in 10.0 mi East 5.8 mph - N/A   Scattered Clouds
12:56 PM 86.0 °F 93.0 °F 73.0 °F 65% 30.20 in 10.0 mi SE 11.5 mph - N/A   Scattered Clouds
1:56 PM 86.0 °F 93.8 °F 73.9 °F 67% 30.19 in 10.0 mi SSE 11.5 mph - N/A   Scattered Clouds
2:56 PM 87.1 °F 95.4 °F 73.9 °F 65% 30.17 in 10.0 mi SE 9.2 mph - N/A   Scattered Clouds
3:56 PM 87.1 °F 95.4 °F 73.9 °F 65% 30.14 in 10.0 mi SSE 8.1 mph - N/A   Scattered Clouds
4:56 PM 86.0 °F 93.8 °F 73.9 °F 67% 30.12 in 10.0 mi South 8.1 mph - N/A   Scattered Clouds
5:56 PM 84.9 °F 91.4 °F 73.0 °F 67% 30.11 in 10.0 mi SSW 5.8 mph - N/A   Scattered Clouds
6:56 PM 84.0 °F 90.2 °F 73.0 °F 69% 30.11 in 10.0 mi SW 6.9 mph - N/A   Scattered Clouds
7:56 PM 80.1 °F 84.5 °F 73.9 °F 81% 30.12 in 10.0 mi West 3.5 mph - N/A   Scattered Clouds
8:56 PM 77.0 °F - 73.9 °F 90% 30.14 in 10.0 mi Calm Calm - N/A   Scattered Clouds
9:56 PM 77.0 °F - 73.9 °F 90% 30.15 in 10.0 mi Calm Calm - N/A   Scattered Clouds
10:56 PM 78.1 °F - 73.9 °F 87% 30.13 in 10.0 mi Calm Calm - N/A   Scattered Clouds
11:56 PM 75.9 °F - 73.9 °F 94% 30.14 in 10.0 mi Calm Calm - N/A   Clear